When you browse on this site, cookies collect data to enhance your experience and personalize the content and advertising you see.
Visit our Privacy Policy to learn more. By continuing to use the site, you agree to this use of cookies and data.
  • în România
  • Lista ţărilor
  • Pe 7 zile
  • Temperatura apei
  • Hartă satelitară
  • Meteo pe hartă
  • Widget-uri
  • user-avatar
    Intrare

    Meteo pe oră la Kaposvar

    Astăzi, 17 Iunie, Luni

    Timp Temperatura Precipitaţii Vânt Presiune Umiditate
    00:00 +19°C° 1.2 mm 3 m/s 748 mmHg 95%
    01:00 +19°C° 0 mm 3 m/s 748 mmHg 93%
    02:00 +19°C° 0 mm 3 m/s 748 mmHg 93%
    03:00 +19°C° 0 mm 3 m/s 748 mmHg 94%
    04:00 +18°C° 0 mm 3 m/s 748 mmHg 95%
    05:00 +19°C° 0 mm 3 m/s 748 mmHg 93%
    06:00 +19°C° 0 mm 3 m/s 748 mmHg 91%
    07:00 +20°C° 0 mm 3 m/s 749 mmHg 89%
    08:00 +21°C° 0.4 mm 3 m/s 749 mmHg 85%
    09:00 +24°C° 0.4 mm 3 m/s 749 mmHg 82%
    10:00 +25°C° 0.4 mm 4 m/s 749 mmHg 78%
    11:00 +25°C° 1.2 mm 3 m/s 748 mmHg 78%
    12:00 +25°C° 1.2 mm 3 m/s 748 mmHg 78%
    13:00 +26°C° 1.2 mm 2 m/s 748 mmHg 78%
    14:00 +25°C° 0.7 mm 3 m/s 748 mmHg 79%
    15:00 +25°C° 0.7 mm 3 m/s 747 mmHg 81%
    16:00 +25°C° 0.7 mm 3 m/s 747 mmHg 82%
    17:00 +24°C° 0.9 mm 3 m/s 747 mmHg 84%
    18:00 +22°C° 0.9 mm 3 m/s 747 mmHg 86%
    19:00 +21°C° 0.9 mm 3 m/s 747 mmHg 88%
    20:00 +21°C° 0 mm 3 m/s 747 mmHg 89%
    21:00 +20°C° 0 mm 2 m/s 747 mmHg 90%
    22:00 +19°C° 0 mm 2 m/s 747 mmHg 91%
    23:00 +19°C° 0 mm 2 m/s 747 mmHg 92%

    Mâine, 18 Iunie, Marţi

    Timp Temperatura Precipitaţii Vânt Presiune Umiditate
    00:00 +19°C° 0 mm 2 m/s 747 mmHg 92%
    01:00 +19°C° 0 mm 2 m/s 747 mmHg 92%
    02:00 +18°C° 0 mm 2 m/s 747 mmHg 92%
    03:00 +18°C° 0 mm 2 m/s 747 mmHg 92%
    04:00 +18°C° 0 mm 2 m/s 747 mmHg 92%
    05:00 +19°C° 0 mm 2 m/s 747 mmHg 88%
    06:00 +20°C° 0 mm 2 m/s 748 mmHg 85%
    07:00 +21°C° 0 mm 2 m/s 748 mmHg 81%
    08:00 +24°C° 0 mm 2 m/s 748 mmHg 77%
    09:00 +25°C° 0 mm 2 m/s 748 mmHg 73%
    10:00 +26°C° 0 mm 2 m/s 748 mmHg 68%
    11:00 +27°C° 0 mm 2 m/s 747 mmHg 66%
    12:00 +28°C° 0 mm 2 m/s 747 mmHg 64%
    13:00 +28°C° 0 mm 2 m/s 747 mmHg 62%
    14:00 +28°C° 0.5 mm 1 m/s 746 mmHg 65%
    15:00 +28°C° 0.5 mm 1 m/s 746 mmHg 67%
    16:00 +28°C° 0.5 mm 1 m/s 746 mmHg 69%
    17:00 +27°C° 0.1 mm 1 m/s 745 mmHg 73%
    18:00 +26°C° 0.1 mm 1 m/s 745 mmHg 78%
    19:00 +25°C° 0.1 mm 1 m/s 745 mmHg 82%
    20:00 +24°C° 0.3 mm 1 m/s 745 mmHg 83%
    21:00 +21°C° 0.3 mm 0 m/s 745 mmHg 84%
    22:00 +20°C° 0.3 mm 0 m/s 745 mmHg 85%
    23:00 +19°C° 0.1 mm 0 m/s 745 mmHg 86%

    Poimâine, 19 Iunie, Miercuri

    Timp Temperatura Precipitaţii Vânt Presiune Umiditate
    00:00 +21°C° 0.1 mm 1 m/s 745 mmHg 86%
    01:00 +21°C° 0.1 mm 1 m/s 745 mmHg 86%
    02:00 +20°C° 0 mm 1 m/s 745 mmHg 88%
    03:00 +20°C° 0 mm 1 m/s 745 mmHg 89%
    04:00 +18°C° 0 mm 0 m/s 745 mmHg 91%
    05:00 +19°C° 0 mm 0 m/s 745 mmHg 88%
    06:00 +20°C° 0 mm 0 m/s 745 mmHg 85%
    07:00 +21°C° 0 mm 0 m/s 745 mmHg 82%
    08:00 +25°C° 0 mm 1 m/s 745 mmHg 77%
    09:00 +26°C° 0 mm 1 m/s 745 mmHg 71%
    10:00 +28°C° 0 mm 1 m/s 745 mmHg 65%
    11:00 +28°C° 0.1 mm 2 m/s 745 mmHg 63%
    12:00 +29°C° 0.1 mm 2 m/s 745 mmHg 61%
    13:00 +30°C° 0.1 mm 2 m/s 744 mmHg 59%
    14:00 +29°C° 1.1 mm 2 m/s 744 mmHg 63%
    15:00 +29°C° 1.1 mm 2 m/s 743 mmHg 67%
    16:00 +28°C° 1.1 mm 2 m/s 743 mmHg 71%
    17:00 +27°C° 0.7 mm 2 m/s 743 mmHg 77%
    18:00 +25°C° 0.7 mm 2 m/s 743 mmHg 82%
    19:00 +24°C° 0.7 mm 2 m/s 743 mmHg 87%
    20:00 +23°C° 0.3 mm 1 m/s 743 mmHg 86%
    21:00 +22°C° 0.3 mm 1 m/s 743 mmHg 85%
    22:00 +22°C° 0.3 mm 1 m/s 744 mmHg 83%
    23:00 +22°C° 0.2 mm 1 m/s 744 mmHg 85%

    20 Iunie, Joi

    Timp Temperatura Precipitaţii Vânt Presiune Umiditate
    00:00 +19°C° 0.2 mm 0 m/s 744 mmHg 86%
    01:00 +19°C° 0.2 mm 0 m/s 743 mmHg 87%
    02:00 +19°C° 0 mm 0 m/s 744 mmHg 88%
    03:00 +18°C° 0 mm 0 m/s 744 mmHg 89%
    04:00 +18°C° 0 mm 0 m/s 744 mmHg 91%
    05:00 +19°C° 0 mm 0 m/s 744 mmHg 88%
    06:00 +23°C° 0 mm 1 m/s 744 mmHg 85%
    07:00 +24°C° 0 mm 1 m/s 745 mmHg 82%
    08:00 +25°C° 0.8 mm 1 m/s 745 mmHg 78%
    09:00 +27°C° 0.8 mm 1 m/s 745 mmHg 75%
    10:00 +28°C° 0.8 mm 1 m/s 745 mmHg 71%
    11:00 +29°C° 0.5 mm 1 m/s 745 mmHg 65%
    12:00 +30°C° 0.5 mm 1 m/s 744 mmHg 60%
    13:00 +31°C° 0.5 mm 1 m/s 744 mmHg 55%
    14:00 +30°C° 0 mm 1 m/s 744 mmHg 56%
    15:00 +30°C° 0 mm 1 m/s 744 mmHg 57%
    16:00 +30°C° 0 mm 1 m/s 744 mmHg 58%
    17:00 +29°C° 0.3 mm 1 m/s 744 mmHg 65%
    18:00 +27°C° 0.3 mm 1 m/s 744 mmHg 73%
    19:00 +25°C° 0.3 mm 1 m/s 744 mmHg 81%
    20:00 +25°C° 0 mm 1 m/s 744 mmHg 82%
    21:00 +24°C° 0 mm 1 m/s 744 mmHg 84%
    22:00 +23°C° 0 mm 1 m/s 744 mmHg 85%
    23:00 +22°C° 0 mm 1 m/s 744 mmHg 86%

    21 Iunie, Vineri

    Timp Temperatura Precipitaţii Vânt Presiune Umiditate
    00:00 +20°C° 0 mm 0 m/s 744 mmHg 87%
    01:00 +20°C° 0 mm 0 m/s 745 mmHg 88%
    02:00 +19°C° 0 mm 0 m/s 745 mmHg 88%
    03:00 +19°C° 0 mm 0 m/s 745 mmHg 89%
    04:00 +19°C° 0 mm 0 m/s 745 mmHg 90%
    05:00 +21°C° 0 mm 0 m/s 745 mmHg 86%
    06:00 +22°C° 0 mm 0 m/s 745 mmHg 82%
    07:00 +24°C° 0 mm 0 m/s 746 mmHg 78%
    08:00 +27°C° 0.5 mm 1 m/s 746 mmHg 74%
    09:00 +28°C° 0.5 mm 1 m/s 746 mmHg 70%
    10:00 +29°C° 0.5 mm 1 m/s 746 mmHg 66%
    11:00 +30°C° 0.9 mm 2 m/s 745 mmHg 64%
    12:00 +30°C° 0.9 mm 2 m/s 745 mmHg 62%
    13:00 +30°C° 0.9 mm 2 m/s 745 mmHg 59%
    14:00 +30°C° 0 mm 2 m/s 745 mmHg 60%
    15:00 +30°C° 0 mm 2 m/s 744 mmHg 61%
    16:00 +30°C° 0 mm 2 m/s 744 mmHg 61%
    17:00 +29°C° 0.1 mm 2 m/s 744 mmHg 68%
    18:00 +28°C° 0.1 mm 2 m/s 744 mmHg 74%
    19:00 +26°C° 0.1 mm 1 m/s 744 mmHg 80%
    20:00 +25°C° 0.1 mm 2 m/s 744 mmHg 82%
    21:00 +24°C° 0.1 mm 2 m/s 744 mmHg 85%
    22:00 +23°C° 0.1 mm 2 m/s 744 mmHg 87%
    23:00 +23°C° 0 mm 2 m/s 744 mmHg 88%

    22 Iunie, Sâmbătă

    Timp Temperatura Precipitaţii Vânt Presiune Umiditate
    00:00 +21°C° 0 mm 2 m/s 744 mmHg 89%
    01:00 +22°C° 0 mm 1 m/s 743 mmHg 90%
    02:00 +22°C° 0 mm 1 m/s 743 mmHg 91%
    03:00 +21°C° 0 mm 1 m/s 743 mmHg 91%
    04:00 +21°C° 0 mm 1 m/s 744 mmHg 91%
    05:00 +21°C° 0 mm 2 m/s 744 mmHg 87%
    06:00 +24°C° 0 mm 2 m/s 744 mmHg 83%
    07:00 +25°C° 0 mm 2 m/s 744 mmHg 79%
    08:00 +26°C° 0 mm 2 m/s 744 mmHg 72%
    09:00 +28°C° 0 mm 3 m/s 744 mmHg 65%
    10:00 +29°C° 0 mm 3 m/s 744 mmHg 58%
    11:00 +30°C° 0 mm 3 m/s 744 mmHg 54%
    12:00 +31°C° 0 mm 3 m/s 743 mmHg 51%
    13:00 +33°C° 0 mm 3 m/s 743 mmHg 48%
    14:00 +33°C° 0 mm 3 m/s 743 mmHg 49%
    15:00 +32°C° 0 mm 2 m/s 743 mmHg 50%
    16:00 +32°C° 0 mm 2 m/s 743 mmHg 51%
    17:00 +31°C° 0 mm 2 m/s 743 mmHg 58%
    18:00 +29°C° 0 mm 2 m/s 743 mmHg 64%
    19:00 +28°C° 0 mm 2 m/s 743 mmHg 71%
    20:00 +26°C° 0.8 mm 2 m/s 743 mmHg 77%
    21:00 +24°C° 0.8 mm 3 m/s 744 mmHg 83%
    22:00 +21°C° 0.8 mm 4 m/s 744 mmHg 89%
    23:00 +20°C° 0.1 mm 4 m/s 745 mmHg 90%
    Arată mai mult